GFSGL_925_rhum_132.txt.gz
RH
100 100 100 100 100 100 100 99 100 99 99 98 100 99 99 99 100 100 100 100 99 96 98 100 97 85 85 83 87 77 82 78 87 75 73 67 66 70 79 84 85 92 93
100 98 98 98 99 100 100 98 100 98 97 100 94 96 98 98 97 99 99 100 100 100 100 97 100 97 95 89 87 91 96 90 86 86 78 77 74 73 74 88 85 89 91
100 100 99 97 97 98 99 100 100 100 100 99 95 99 98 99 99 99 99 100 100 100 100 100 100 100 100 100 100 96 96 90 93 91 81 85 83 80 87 92 96 95 97
100 100 100 100 99 98 98 98 99 100 100 100 100 100 100 100 100 100 100 99 96 98 99 99 100 99 100 100 100 99 99 100 99 98 94 89 87 91 89 98 100 99 98
99 100 100 100 100 95 96 96 97 98 98 99 100 100 100 100 100 100 100 98 100 95 95 94 100 100 98 98 100 99 100 100 98 98 96 94 95 99 98 96 97 100 100
95 96 92 95 96 94 93 95 96 96 96 95 98 98 100 100 96 96 96 98 100 100 100 93 96 95 89 89 89 91 96 99 100 94 92 92 89 92 97 99 97 99 98
94 91 90 89 91 93 93 93 96 96 97 97 99 99 100 100 100 95 98 100 98 100 99 99 98 98 99 92 84 84 88 84 100 100 100 94 91 91 96 100 99 99 97
88 88 89 90 90 91 94 92 92 92 92 95 96 99 100 100 100 100 100 100 100 100 100 100 100 100 100 99 94 90 93 99 98 99 100 100 100 99 96 91 97 99 100
81 86 90 88 91 93 94 97 92 93 94 95 96 95 98 99 98 99 100 99 99 99 99 100 100 100 100 99 99 100 97 95 92 98 100 98 100 100 100 100 100 100 100
74 74 81 87 87 93 93 93 95 91 92 94 95 99 98 99 98 96 98 100 100 98 98 100 100 100 100 100 100 100 100 100 99 94 94 98 98 100 100 100 100 99 98
57 56 64 71 84 86 88 87 90 89 88 89 90 92 96 97 97 96 97 97 99 99 96 97 98 99 98 100 100 100 100 98 98 98 96 96 96 97 97 99 99 100 100
49 52 50 56 68 73 79 79 83 85 86 87 88 90 93 94 96 96 96 95 96 97 100 97 93 94 93 93 91 93 93 98 98 97 98 100 98 96 96 100 99 99 100
45 50 51 50 52 64 70 80 84 84 85 86 89 91 92 93 95 94 96 95 94 95 94 87 87 86 87 92 95 90 93 100 100 99 100 100 98 97 97 96 97 98 98
42 50 52 54 52 55 67 75 85 91 89 90 90 92 93 92 92 89 90 94 95 88 96 86 82 87 89 90 93 97 98 97 100 100 100 96 97 98 97 97 97 97 95
48 55 62 61 59 58 65 75 85 93 95 94 94 91 91 94 85 82 83 86 95 85 90 89 91 93 93 90 94 94 95 99 100 100 100 100 99 97 97 96 96 96 96
59 61 66 67 67 68 68 68 74 80 89 94 86 87 82 84 80 78 79 80 81 84 90 90 92 92 93 93 90 96 96 98 100 98 99 100 99 99 98 97 97 97 97
75 74 79 77 76 76 75 74 76 72 70 71 78 89 80 76 80 75 78 80 79 78 86 90 90 94 95 93 96 95 98 98 97 97 97 97 98 97 98 98 98 98 97
77 80 81 83 80 76 76 75 74 73 75 72 69 84 80 70 76 75 78 77 85 86 82 87 91 88 88 95 98 99 99 98 98 98 97 97 97 96 97 97 97 97 97
74 78 75 77 74 72 73 74 72 72 73 74 74 88 80 69 77 77 83 86 88 90 91 91 95 96 90 90 98 100 99 98 96 98 97 96 96 96 96 96 96 96 96
76 74 72 75 73 72 75 74 72 73 74 75 79 96 88 70 89 85 87 95 91 94 95 94 95 100 98 98 97 96 100 99 97 96 97 97 95 96 96 95 94 96 96
77 75 71 72 71 74 76 75 78 77 79 78 78 77 82 84 94 88 90 98 78 97 96 92 94 89 96 84 100 99 100 100 96 99 97 97 96 96 87 91 85 73 86
75 74 72 70 69 76 71 77 79 79 80 79 80 83 83 84 90 88 92 93 91 78 94 91 84 98 99 86 100 100 100 96 91 99 98 94 97 96 96 92 87 80 78
72 76 76 70 74 77 74 83 80 81 80 81 84 87 90 92 89 86 90 97 90 80 80 95 90 94 92 91 97 96 100 98 96 100 100 96 99 84 96 81 80 73 75
70 79 79 76 76 78 83 84 83 82 83 85 85 88 92 93 90 89 88 95 94 89 85 88 98 97 83 88 100 82 77 69 67 76 91 99 100 92 83 87 96 83 81
76 81 78 80 79 82 85 87 85 85 86 85 89 89 84 88 89 84 92 78 88 99 75 74 98 100 91 95 100 90 77 63 55 75 95 96 100 95 95 84 88 76 78
85 86 83 85 87 87 90 88 90 91 88 88 89 87 85 88 90 87 95 80 97 71 87 98 92 92 100 100 96 88 83 72 56 83 94 100 98 84 89 91 84 92 79

GFSGL_925_rhum_135.txt.gz
RH
100 100 100 100 100 100 100 100 100 99 100 100 100 98 100 99 98 100 99 100 100 100 100 99 100 100 100 100 100 100 98 97 92 79 80 77 73 71 68 76 72 70 73
100 100 100 100 100 100 100 100 100 100 100 100 100 96 100 99 100 98 99 99 99 99 100 100 100 99 99 100 100 100 100 100 96 95 81 80 85 79 69 72 77 78 81
98 99 100 100 98 98 100 100 100 100 100 100 100 100 100 100 100 97 92 94 98 99 100 100 100 99 98 99 98 100 100 100 99 100 89 82 93 88 84 82 82 83 82
99 99 99 100 99 98 98 99 98 99 100 99 100 100 100 100 100 100 94 91 91 96 96 99 100 100 100 100 99 100 100 99 100 100 99 98 97 94 85 93 99 100 99
98 100 100 99 98 98 97 98 98 100 100 100 98 100 100 100 100 100 100 100 100 100 99 99 98 99 94 99 100 100 100 100 100 100 99 97 94 100 97 97 96 100 99
90 93 99 98 100 96 96 96 96 98 100 100 98 100 100 100 100 100 100 100 100 100 100 100 100 99 100 87 94 95 99 99 100 99 98 98 98 100 89 97 98 99 97
96 89 93 93 96 99 95 97 98 99 97 97 100 100 99 99 100 100 100 100 100 100 100 100 100 100 100 100 86 92 97 99 100 99 100 100 100 99 99 100 98 90 91
87 87 84 92 92 97 95 96 98 97 98 100 100 100 100 96 98 99 100 98 100 100 100 100 100 100 100 100 100 100 97 93 95 100 99 100 100 99 100 100 99 99 97
80 90 85 82 87 91 98 99 96 99 99 100 100 100 100 100 96 95 98 98 97 93 95 98 96 100 99 98 100 100 100 98 85 88 90 92 98 100 100 98 93 100 100
54 80 82 80 77 74 73 89 91 85 94 95 100 91 93 97 93 94 97 98 95 94 95 93 90 90 94 97 100 100 99 100 100 86 81 80 84 88 94 100 100 100 99
58 54 75 78 78 72 69 67 75 81 81 85 86 96 89 99 93 91 93 99 99 100 100 98 87 92 90 93 97 100 100 100 100 99 99 98 97 91 88 96 100 100 100
54 55 57 70 72 82 76 79 81 85 88 88 87 88 90 88 93 88 92 98 90 94 100 95 85 90 90 94 96 96 96 100 100 100 100 100 100 100 99 92 98 100 100
56 61 60 60 67 72 78 74 83 87 92 92 88 87 87 88 88 84 77 98 92 85 93 92 86 94 95 76 95 95 91 100 100 98 99 100 100 99 99 100 89 97 98
65 66 69 67 68 73 82 80 81 88 92 94 92 84 82 88 90 84 82 90 91 79 88 71 71 77 83 91 83 92 100 100 100 100 100 100 97 94 100 100 100 96 95
64 75 75 72 73 74 77 86 86 94 94 94 88 81 86 84 81 77 80 82 85 79 90 85 85 89 97 99 99 97 100 100 100 100 100 100 100 100 98 99 98 100 99
61 81 88 81 68 78 78 76 72 80 92 96 95 88 78 71 76 75 81 78 81 82 90 99 98 91 96 100 100 99 98 100 100 100 100 100 100 100 100 97 98 100 100
78 70 80 85 72 75 74 75 78 70 68 76 88 91 81 70 73 76 85 79 81 83 98 98 98 98 94 94 100 100 100 100 100 100 100 100 100 99 99 97 98 98 96
80 67 72 80 75 76 76 66 73 75 76 76 85 86 82 73 73 74 86 77 86 93 94 99 100 100 100 100 100 100 100 100 100 100 100 100 99 100 97 98 97 97 97
78 73 68 76 75 75 77 63 76 78 78 77 83 80 80 72 86 85 94 81 68 92 98 93 99 100 96 85 100 100 100 100 100 100 100 100 100 98 97 98 97 96 96
79 76 71 72 72 79 69 62 87 76 81 84 80 86 85 74 87 86 96 94 80 73 94 95 84 100 91 75 99 100 100 98 91 93 97 99 96 100 98 97 97 97 97
81 75 72 73 74 79 70 75 89 70 83 81 80 78 81 89 91 80 95 99 95 78 78 92 85 95 88 80 82 86 90 86 77 90 98 98 97 99 100 97 96 96 97
80 77 71 74 72 78 69 84 78 71 85 84 84 80 80 90 94 90 89 100 98 90 81 87 94 97 89 78 81 91 77 66 67 81 96 98 99 100 98 99 96 96 96
73 81 74 77 78 77 76 83 76 82 78 78 82 86 89 76 88 95 89 96 93 99 97 79 70 100 98 92 88 93 88 77 63 70 91 100 100 98 100 97 94 94 96
64 86 79 81 79 76 77 80 83 80 80 79 75 78 80 74 83 92 91 93 79 78 90 71 85 100 100 100 91 94 84 76 62 60 100 100 100 96 97 89 94 82 78
59 76 89 84 83 87 85 84 88 86 88 88 83 84 84 82 81 81 92 95 88 94 79 70 77 81 88 100 100 96 82 78 62 80 98 100 100 94 96 89 95 86 75
68 85 97 90 85 85 87 94 92 90 94 93 94 94 94 90 88 87 88 81 99 98 86 73 68 70 96 95 99 87 90 81 62 94 100 100 100 93 95 90 90 80 75

GFSGL_925_rhum_138.txt.gz
RH
100 100 100 100 100 98 100 99 100 100 100 98 100 100 100 97 100 100 100 100 99 90 90 99 100 100 100 98 99 99 100 100 96 86 85 85 71 76 78 77 72 73 70
99 100 100 99 98 97 99 100 100 100 100 99 100 99 100 100 98 98 98 100 98 100 98 100 100 96 95 96 94 96 98 99 100 98 92 94 97 86 65 92 88 87 81
100 99 98 98 98 98 99 100 100 100 100 99 100 100 100 100 98 90 92 98 96 98 98 98 100 98 99 99 100 99 98 98 100 100 98 100 96 84 80 86 98 88 93
100 100 99 99 98 100 98 100 100 99 100 98 100 100 100 100 100 100 99 99 100 100 100 100 100 100 100 100 100 100 100 99 100 100 97 94 95 97 99 98 100 99 88
92 99 100 100 100 100 99 95 95 100 100 100 100 100 100 100 100 100 100 100 100 100 100 100 100 100 100 100 100 100 100 100 100 99 96 96 94 95 99 100 100 95 99
86 96 98 99 98 98 99 97 94 93 99 99 96 99 98 100 99 100 100 100 100 100 100 100 100 100 99 98 94 91 98 100 100 99 98 98 98 100 100 99 100 98 98
78 78 88 96 97 95 97 97 96 91 95 100 100 96 96 96 99 97 100 95 98 98 98 98 97 99 100 89 100 92 91 92 98 100 100 100 100 100 100 100 100 100 98
85 79 71 74 86 90 89 97 99 96 92 97 97 99 97 93 93 98 92 92 97 94 93 94 96 95 96 99 100 100 100 94 98 98 99 100 100 100 100 100 100 100 100
93 85 80 72 75 82 86 86 90 90 96 93 98 100 95 93 91 93 92 91 92 100 99 92 94 92 92 95 100 98 99 100 94 85 86 93 98 94 100 99 100 100 96
86 90 77 71 70 76 83 84 86 83 83 86 91 90 98 87 87 89 89 88 90 100 100 82 96 91 93 94 99 100 99 100 100 100 94 84 87 87 93 100 100 100 99
72 72 84 82 72 76 80 83 86 88 83 76 77 89 88 94 84 88 89 89 94 100 98 92 92 94 94 95 99 100 100 100 100 100 100 97 99 96 92 96 100 100 100
64 72 78 86 86 75 80 85 86 89 87 84 79 79 91 92 88 84 90 91 92 99 96 91 92 93 95 95 96 100 100 100 100 98 98 98 100 100 91 100 100 94 94
71 72 76 80 84 85 81 86 89 88 90 86 84 82 82 92 91 85 83 93 88 88 94 90 88 92 96 76 99 95 92 100 100 96 97 100 100 92 85 93 97 86 80
79 78 71 78 77 84 85 89 85 88 91 93 86 78 74 85 93 90 76 86 86 67 77 74 74 76 80 89 84 90 100 100 100 100 99 100 100 100 99 94 100 100 94
83 89 72 76 78 76 87 96 96 98 95 96 92 76 80 76 78 87 81 81 87 81 73 90 95 87 92 94 96 100 98 100 100 100 100 100 100 100 100 96 100 100 100
77 84 84 78 77 76 77 74 75 85 88 99 90 81 74 74 75 81 81 78 83 84 82 97 100 100 100 100 100 100 100 100 100 100 100 100 100 100 100 100 100 99 100
67 77 82 79 81 78 66 75 79 72 67 87 91 86 79 75 77 80 81 78 81 67 86 90 100 100 100 94 100 100 100 100 100 98 100 100 100 100 100 98 99 98 96
74 68 77 77 77 76 63 76 80 81 83 82 79 88 80 79 78 80 87 73 73 75 86 84 100 100 96 90 94 100 99 100 93 85 100 100 100 100 100 97 98 98 98
78 70 73 74 78 73 62 84 77 71 83 79 72 70 81 86 88 86 90 88 84 74 82 84 88 85 85 79 79 88 83 83 72 76 92 100 100 100 100 100 100 98 98
78 74 73 76 78 75 67 85 81 69 84 83 82 82 80 81 88 84 96 100 94 89 81 86 89 86 93 84 77 83 88 82 68 68 87 99 100 100 100 100 100 99 98
80 76 73 75 72 78 70 84 78 70 84 80 82 81 82 76 82 92 88 93 94 93 93 90 90 80 100 97 85 88 93 84 74 65 72 99 100 100 100 100 100 100 99
83 81 72 76 78 77 71 77 78 75 76 76 73 72 77 78 71 82 94 90 88 89 84 93 74 70 99 100 90 91 96 82 80 68 70 100 100 99 100 100 100 100 100
69 81 84 78 81 78 74 76 81 84 83 84 83 80 78 77 76 75 78 84 90 87 78 88 74 68 77 95 96 100 100 85 88 73 85 100 100 100 100 100 100 100 88
52 61 84 89 86 82 84 83 85 90 92 92 94 93 93 92 90 81 81 82 91 89 91 90 76 71 78 90 94 88 93 92 91 70 100 100 100 100 100 97 98 98 82
64 63 82 90 96 89 85 86 89 89 85 94 97 90 85 95 98 92 92 84 88 92 97 96 82 74 78 90 85 95 99 97 73 71 100 100 100 96 93 96 99 86 81
68 68 73 76 83 92 98 96 97 96 100 98 98 95 91 86 83 90 98 91 96 98 100 94 82 65 68 88 95 100 100 88 71 75 100 100 98 86 96 95 98 95 89

GFSGL_925_rhum_141.txt.gz
RH
99 99 99 100 100 99 100 100 100 98 100 100 100 100 100 100 100 94 100 99 100 100 99 100 96 100 92 90 85 94 100 100 99 94 91 86 85 82 78 72 77 76 77
98 98 99 100 99 99 99 99 96 98 99 100 100 100 100 100 100 100 99 100 100 100 99 93 98 100 100 98 100 96 100 99 100 99 94 88 93 87 88 84 80 83 86
100 100 100 100 99 98 98 95 99 96 100 99 100 100 100 100 100 100 100 100 98 98 98 97 95 96 99 92 97 100 100 100 98 100 98 96 94 100 99 99 92 90 90
98 99 96 100 97 99 97 95 96 96 100 100 98 100 100 100 100 100 98 98 100 100 97 96 96 98 100 97 100 100 99 100 100 100 97 97 98 96 96 99 95 90 96
84 94 98 96 100 100 97 95 98 99 100 97 98 99 98 99 100 99 97 98 99 100 100 98 99 100 100 100 100 100 100 100 100 99 98 99 98 98 99 100 100 100 86
71 74 86 89 94 97 98 96 97 94 95 98 96 96 98 96 97 97 91 98 97 99 99 97 95 96 90 100 100 100 100 100 100 100 99 98 100 100 100 100 100 97 95
78 73 75 85 80 86 90 90 93 92 93 94 99 94 94 95 94 98 100 98 100 99 98 94 92 97 92 93 95 94 95 100 100 100 100 100 100 100 100 100 100 100 98
81 74 75 79 82 78 81 84 87 92 95 100 97 98 93 90 90 94 99 100 97 97 100 98 98 98 94 96 97 95 99 100 100 100 100 100 100 100 99 100 100 100 99
88 82 78 80 85 85 85 85 83 88 96 98 100 98 95 90 89 91 94 100 92 92 89 96 96 95 94 97 100 96 98 100 100 100 100 94 90 88 100 100 100 99 96
98 80 72 70 72 79 87 83 81 79 86 95 99 98 95 85 88 89 96 100 100 97 87 93 96 96 97 99 100 99 97 100 99 100 93 74 69 69 80 100 100 99 98
78 85 86 83 78 77 81 84 81 75 65 72 89 96 88 92 82 87 88 94 94 95 93 82 91 94 97 99 100 100 100 100 97 96 100 99 86 79 78 80 96 100 100
75 82 86 86 92 83 81 81 81 86 85 81 82 90 99 88 84 87 89 88 92 96 96 93 91 92 94 100 98 100 97 87 94 94 99 98 100 100 88 82 83 84 85
76 81 84 88 92 94 90 86 83 88 91 84 83 84 89 95 79 79 90 88 88 68 98 95 94 90 87 54 95 83 76 86 98 100 100 100 100 100 99 96 81 86 77
79 80 79 83 81 86 85 91 91 88 95 88 80 78 81 90 97 83 81 83 54 47 52 64 55 57 61 68 67 70 73 97 100 100 100 99 90 88 98 100 100 100 99
86 84 78 70 71 79 88 92 93 99 97 87 82 76 82 80 84 82 79 85 84 69 63 68 73 74 78 78 81 89 78 89 88 87 100 100 100 100 97 100 100 100 98
83 82 80 78 72 71 76 75 86 87 89 88 83 78 77 78 77 82 81 80 84 81 72 84 90 91 96 94 97 100 97 100 94 81 87 100 100 100 100 97 100 99 97
78 82 77 79 74 66 80 81 75 72 80 88 87 84 80 78 79 80 81 80 83 68 76 76 82 86 97 94 95 100 100 94 76 74 82 100 100 100 100 100 100 97 96
70 78 78 77 72 64 80 76 67 76 79 73 67 84 85 83 82 82 88 78 83 78 78 82 81 82 88 88 83 86 87 87 77 64 68 91 100 100 100 100 100 99 98
73 74 75 78 74 67 68 76 70 74 84 80 73 67 71 72 78 80 86 88 94 90 85 84 90 85 92 97 90 82 84 91 80 74 64 79 100 100 100 100 100 100 99
75 73 74 76 74 73 70 82 69 73 79 73 74 76 74 72 66 66 84 88 86 89 91 86 88 78 75 93 92 89 90 94 82 78 68 72 99 100 100 100 100 100 100
76 74 73 75 74 77 71 82 80 75 75 76 75 74 78 81 77 70 70 77 85 85 85 78 82 81 71 71 87 95 100 98 89 92 82 71 98 100 100 100 100 100 100
82 80 74 76 80 81 74 75 79 81 84 86 85 84 86 90 88 86 80 77 76 79 84 84 87 84 72 76 95 100 100 99 100 99 80 79 100 100 100 100 100 100 100
73 71 82 85 86 83 81 80 81 84 88 90 88 94 92 88 90 98 99 90 85 83 87 93 93 88 77 76 82 92 92 100 100 98 80 97 100 100 100 100 100 100 100
65 59 64 86 94 94 92 88 86 86 92 88 91 94 93 87 81 76 79 97 100 95 88 93 96 95 80 64 74 79 97 100 100 83 82 100 100 100 99 100 100 100 100
74 68 74 88 86 86 95 97 99 98 99 100 100 97 96 96 94 93 97 90 89 98 97 100 97 96 84 62 73 78 90 97 96 88 80 100 100 100 99 100 98 99 96
80 76 80 84 90 92 93 94 96 98 97 97 97 95 97 98 97 94 93 94 96 96 99 99 97 98 95 71 76 90 95 100 100 94 88 98 100 100 100 100 97 98 98

GFSGL_925_rhum_144.txt.gz
RH
98 99 100 100 97 96 99 100 100 100 100 100 100 100 99 100 100 100 100 100 98 100 100 99 99 100 100 100 96 95 97 93 98 96 90 99 96 99 100 98 93 85 76
97 100 100 97 98 97 98 98 98 99 100 100 99 98 100 100 100 100 100 100 100 100 98 100 100 99 99 100 98 99 99 99 98 97 98 94 100 97 94 99 98 100 100
86 95 100 100 99 99 98 97 96 97 98 95 97 99 100 100 100 100 100 100 100 100 100 99 100 98 99 97 98 99 100 100 100 100 100 97 100 90 81 82 82 88 90
74 88 92 95 100 98 96 92 95 96 98 98 100 100 100 98 99 100 100 100 100 100 100 100 100 100 98 97 96 96 97 96 98 96 99 99 98 99 99 99 92 82 71
71 78 85 85 90 91 94 95 95 97 97 99 97 98 98 99 94 99 98 97 96 99 100 100 99 100 100 100 100 100 97 96 98 95 94 94 97 99 100 100 100 99 75
74 78 78 74 85 90 88 96 97 97 95 99 98 93 98 98 93 94 100 100 98 99 99 98 96 95 100 100 100 100 100 100 100 98 99 99 100 100 100 100 100 98 94
77 78 79 78 78 79 82 86 96 96 99 95 98 91 90 92 94 85 92 100 100 99 100 100 96 97 91 94 96 99 100 100 100 100 98 100 99 100 100 100 100 100 99
78 82 80 82 81 81 81 86 92 96 97 99 94 99 91 88 90 88 86 84 95 100 100 97 100 97 97 93 90 91 98 100 99 98 99 100 100 100 100 100 100 100 96
85 83 78 76 83 85 84 86 88 95 99 99 100 92 98 89 87 89 80 79 86 90 98 92 93 97 94 97 91 86 87 76 87 100 99 89 77 96 99 97 98 95 89
90 92 79 69 69 80 82 80 80 85 95 99 94 94 88 93 85 88 76 81 88 96 91 99 92 95 95 99 100 100 99 89 71 59 66 62 65 68 75 88 100 96 92
77 75 83 87 72 68 74 76 75 78 83 91 99 94 82 85 86 84 87 75 90 93 95 91 94 92 94 96 99 100 100 77 75 75 75 74 66 63 64 72 81 99 100
77 79 83 87 94 80 77 82 86 86 85 89 91 99 100 80 87 88 82 84 64 79 91 93 93 91 92 95 93 96 65 54 63 76 84 88 86 78 72 71 77 78 81
74 81 85 88 93 100 95 87 87 87 87 82 90 90 97 99 78 89 91 83 78 66 92 91 92 74 59 43 94 55 44 49 58 74 100 99 96 88 81 78 70 83 62
75 76 78 84 82 85 89 99 91 89 89 83 78 85 81 94 88 80 81 76 48 44 40 38 41 46 48 50 48 48 49 49 55 62 75 84 83 81 82 89 100 100 98
79 85 80 72 73 77 90 92 95 93 85 83 82 79 85 80 84 82 81 84 77 54 46 46 51 57 65 69 69 68 68 66 62 60 70 90 95 92 85 85 93 100 97
79 84 78 70 66 72 74 71 88 90 86 85 83 81 81 80 79 82 82 82 86 73 66 74 78 82 88 86 83 84 75 77 73 66 61 79 100 100 100 89 96 100 100
77 77 77 72 66 75 76 70 67 71 72 85 86 84 82 80 80 80 83 82 84 68 76 82 88 86 94 95 94 92 91 89 81 73 65 68 96 100 100 100 100 100 100
75 76 74 72 65 74 77 70 69 78 75 67 64 81 78 82 79 82 88 68 70 75 80 80 84 83 82 91 93 97 96 97 92 86 86 71 78 100 100 100 100 100 100
75 74 77 75 70 69 77 73 62 72 72 66 63 61 65 66 71 68 66 78 86 82 84 78 80 84 76 74 73 88 99 99 98 94 93 82 73 100 100 100 100 100 100
73 74 79 76 73 70 71 79 72 70 72 74 75 78 80 81 81 82 79 76 76 80 83 88 82 85 84 76 75 91 97 96 98 99 97 82 72 95 100 100 100 100 100
75 72 75 75 76 77 70 72 76 78 80 84 84 86 94 97 99 97 95 95 94 83 80 87 87 86 87 81 77 75 85 93 98 100 99 81 82 100 100 100 100 100 100
81 78 74 75 80 83 80 77 81 82 83 88 88 83 86 93 88 81 74 73 81 99 99 94 93 90 90 88 79 68 82 89 97 99 98 82 88 100 100 100 100 100 100
77 70 82 88 88 88 87 88 90 92 94 95 99 94 93 94 94 94 95 87 85 86 86 99 100 97 93 94 82 68 84 88 98 100 100 89 90 100 100 100 100 100 100
68 69 64 71 91 96 96 93 94 94 96 99 99 97 97 93 92 94 93 94 91 87 87 99 99 99 98 97 94 68 81 95 100 100 100 99 95 100 100 100 100 100 100
74 77 75 84 85 82 84 91 91 93 98 99 97 96 96 94 92 93 92 91 90 87 86 88 95 100 100 100 100 93 82 100 100 100 100 97 95 96 100 100 100 100 100
75 83 87 93 97 96 96 96 96 97 96 96 95 93 91 89 90 94 95 94 93 93 90 88 88 88 90 90 96 100 99 100 100 99 98 94 98 92 97 100 100 100 100

GFSGL_925_rhum_147.txt.gz
RH
98 99 100 100 100 100 100 100 100 98 97 100 100 100 100 100 99 100 100 100 100 99 100 100 100 100 100 100 98 93 98 100 94 100 100 100 97 98 99 100 100 100 100
88 94 99 97 96 100 99 97 96 98 98 99 100 100 100 100 97 100 100 100 100 100 100 100 100 99 99 98 100 100 99 100 100 98 100 100 98 90 89 89 94 97 95
81 83 95 96 89 99 100 100 100 100 100 100 100 100 99 96 100 98 100 100 100 100 100 100 99 99 99 98 97 99 100 100 99 100 100 99 99 93 96 92 81 80 80
81 77 77 95 88 85 93 94 94 100 98 98 99 100 93 99 96 95 97 99 100 98 99 100 100 100 100 97 97 100 99 100 100 99 98 98 96 97 99 97 90 71 89
79 78 71 73 88 75 83 85 84 84 98 96 98 98 98 95 98 97 99 98 97 99 97 96 100 100 100 99 99 100 95 99 99 98 96 96 97 97 98 99 98 94 84
61 63 69 67 69 76 72 77 77 75 76 87 89 92 97 99 100 98 98 96 97 97 91 88 90 92 93 99 100 100 100 94 90 91 90 87 89 92 92 92 93 87 77
63 62 63 63 64 68 69 71 72 74 73 76 77 83 85 91 80 86 90 83 88 85 92 86 83 92 88 77 86 93 99 100 95 92 89 95 93 97 91 83 86 86 86
68 67 65 64 64 67 70 74 76 72 75 77 80 76 77 83 82 69 64 72 82 91 89 87 82 83 93 77 71 76 85 93 100 96 97 100 100 100 100 94 88 84 80
79 75 76 70 70 70 75 80 78 80 79 79 84 87 82 80 81 77 53 59 68 84 86 88 86 86 95 87 68 66 78 94 89 98 99 87 92 100 100 90 84 74 74
92 90 81 81 82 89 87 84 81 82 85 84 86 94 93 85 84 78 69 66 82 78 90 90 90 89 91 94 78 74 72 91 67 56 59 58 61 66 76 100 100 84 80
89 94 88 87 82 91 90 86 91 90 92 97 96 95 97 91 86 83 80 85 87 86 87 90 91 92 90 90 93 90 91 80 74 91 95 93 86 82 92 97 100 100 92
86 88 94 92 87 92 98 91 90 85 90 90 91 93 97 94 89 84 82 79 88 87 92 93 93 87 94 90 85 88 43 62 83 84 87 92 97 99 100 97 72 100 100
80 82 84 85 90 93 91 94 80 79 73 73 76 80 86 92 91 98 89 84 77 88 91 93 93 83 84 78 92 73 80 85 84 79 84 92 100 100 100 100 100 98 95
69 74 77 78 79 82 86 87 85 81 77 76 78 82 82 82 84 85 91 90 86 86 90 90 89 90 89 94 93 95 96 95 93 90 88 92 96 96 96 100 95 90 83
71 70 68 72 72 79 88 84 82 86 81 82 88 88 84 81 83 82 79 84 81 62 82 82 81 82 84 85 86 90 91 89 88 89 86 82 82 86 86 91 89 84 79
70 73 74 72 72 74 70 84 90 87 86 84 84 83 89 81 80 82 81 82 86 78 84 83 84 86 85 81 82 83 86 89 91 85 84 80 78 80 85 82 82 82 78
72 77 76 69 75 80 78 73 74 77 64 87 86 84 82 79 79 81 82 82 87 82 79 82 83 85 78 74 75 77 82 92 94 88 86 87 85 80 81 80 80 80 77
74 72 75 71 78 81 84 83 84 81 78 79 64 81 85 86 82 83 87 77 72 74 76 75 78 78 75 73 73 77 85 91 90 91 90 94 89 85 83 80 79 83 80
72 72 71 70 70 71 72 74 78 86 85 84 84 78 73 72 73 73 76 95 94 82 79 76 79 78 77 76 86 89 97 96 100 100 94 96 95 88 87 87 85 86 86
82 75 76 75 73 81 80 87 84 87 87 89 86 88 96 89 86 92 94 100 97 92 93 87 83 84 87 88 92 90 81 82 86 89 94 97 97 95 90 91 88 85 78
75 73 82 82 87 86 84 87 90 92 89 89 91 98 90 95 100 98 94 94 96 96 96 99 100 98 100 96 92 88 84 88 90 96 95 97 100 99 91 89 87 83 79
76 77 77 88 82 88 93 93 95 97 96 98 98 100 96 100 100 100 100 100 100 100 100 100 100 100 100 100 98 99 91 91 94 96 100 100 100 98 95 92 88 86 86
82 84 87 95 95 94 96 100 100 100 100 100 100 100 100 100 100 100 100 100 100 100 100 100 100 100 100 100 100 100 100 91 97 100 100 100 100 99 100 95 91 90 89
64 66 68 72 81 100 100 100 100 100 98 100 100 100 100 100 100 100 100 100 100 100 100 100 100 100 100 100 100 100 100 100 100 100 100 100 100 100 100 100 94 94 96
72 76 75 77 85 95 95 100 100 100 100 100 100 100 100 100 100 100 100 100 100 100 100 100 100 100 100 100 100 100 99 100 100 100 100 100 100 100 100 100 100 100 97
79 78 88 94 100 99 100 100 100 100 100 100 100 100 100 100 100 100 100 100 100 100 100 100 100 100 92 100 100 95 95 97 100 100 100 99 100 100 100 100 100 100 98

GFSGL_925_rhum_150.txt.gz
RH
89 88 90 99 100 99 100 100 99 100 100 99 99 100 100 100 100 100 100 99 99 100 100 100 100 100 100 100 99 99 100 100 88 100 93 97 100 100 100 100 100 100 100
94 98 93 96 96 96 100 99 93 98 96 99 99 98 98 100 100 100 100 97 100 100 100 100 100 100 100 100 100 100 100 100 100 87 100 91 99 100 100 95 95 88 93
86 92 97 90 87 89 92 91 87 94 93 91 97 99 98 98 100 99 98 99 100 100 100 100 100 100 100 100 100 100 100 100 100 99 100 99 98 95 92 96 84 82 100
79 61 82 93 67 68 76 78 72 83 90 93 98 100 100 100 100 97 97 97 98 99 100 100 100 100 100 99 100 100 100 100 97 98 100 99 98 97 97 99 95 83 100
73 62 55 55 67 56 60 59 55 56 65 65 84 98 100 98 99 98 95 98 100 96 98 98 99 98 100 100 99 100 98 99 99 98 98 96 97 96 98 98 97 95 99
43 44 51 50 51 56 51 52 51 49 51 50 50 61 94 95 89 86 93 96 97 96 98 96 99 97 95 98 96 98 100 95 93 89 91 86 89 95 96 96 94 91 94
44 44 44 46 47 50 51 49 48 50 51 52 50 46 58 76 73 65 61 78 87 93 93 83 78 84 75 69 77 80 92 92 90 82 84 90 89 96 92 86 84 81 80
49 46 45 45 48 51 51 51 50 50 54 57 60 54 50 76 73 54 48 50 65 74 83 80 75 72 74 52 53 68 76 87 90 85 90 92 92 94 86 78 78 81 77
60 57 56 52 53 54 60 61 58 59 61 65 69 74 67 68 82 68 46 49 54 67 72 84 75 77 83 61 43 42 65 86 90 97 98 98 98 98 99 76 71 64 66
77 72 64 68 72 80 78 69 67 72 70 74 79 81 85 76 82 85 64 60 72 67 75 77 87 83 84 82 58 54 66 86 89 89 91 93 96 97 98 98 93 78 74
77 76 71 78 87 79 75 76 84 82 82 85 85 87 89 89 84 83 88 81 78 76 78 81 86 89 88 90 88 84 89 91 86 83 81 82 84 87 91 95 98 96 87
68 71 79 74 73 89 86 78 77 74 76 76 76 78 82 87 90 87 86 91 90 82 86 89 92 91 91 90 91 92 90 89 85 80 78 80 84 86 89 90 94 94 94
62 63 65 70 76 75 74 78 64 64 62 62 64 68 70 75 78 87 86 84 90 89 92 91 90 92 89 89 90 92 91 87 83 80 81 84 87 88 86 83 83 83 82
53 54 55 56 57 62 61 64 68 68 66 67 69 70 71 73 76 77 78 78 82 86 85 83 85 82 83 82 82 84 86 86 84 83 83 82 81 78 78 78 76 72 69
47 48 50 52 52 58 67 68 69 83 80 75 79 77 76 76 80 80 79 79 82 88 79 76 77 76 74 75 74 76 78 80 81 80 79 77 75 73 70 71 68 66 64
49 49 52 52 53 51 53 66 85 86 85 86 82 83 85 79 80 80 80 84 86 81 72 72 73 73 70 67 67 68 70 74 77 74 74 74 74 71 69 65 64 65 62
48 54 55 52 55 59 60 60 66 78 60 76 86 85 84 82 80 82 84 78 75 70 64 66 70 70 64 58 59 61 64 70 71 72 73 75 78 75 70 66 64 64 63
73 75 73 78 79 77 76 76 76 73 73 76 81 68 77 91 89 88 92 74 65 63 62 61 64 64 60 56 58 63 69 71 72 73 72 77 79 78 74 68 65 67 66
89 84 86 87 87 82 82 79 77 75 73 72 70 74 82 84 94 96 86 76 73 66 62 60 62 62 61 62 70 77 79 74 75 74 74 76 80 80 76 72 71 70 69
79 84 80 81 84 81 80 77 74 73 71 70 69 73 75 73 72 72 73 76 75 70 70 66 64 65 76 78 80 83 82 72 70 71 74 77 79 82 79 77 75 72 65
82 86 81 79 77 77 76 74 72 72 71 69 71 93 84 93 80 75 74 74 77 77 79 81 80 81 80 80 89 84 83 84 79 78 78 77 79 80 76 78 77 74 67
80 79 80 77 76 78 76 74 75 76 74 72 74 80 94 95 85 81 77 81 87 86 85 85 87 85 85 89 91 91 90 88 84 86 88 80 77 75 76 79 79 78 73
81 80 76 74 76 82 82 80 80 83 79 83 88 86 87 88 88 85 84 88 90 91 93 92 94 89 90 96 98 96 92 91 94 95 88 86 80 76 79 79 80 79 75
81 80 74 75 84 78 81 84 85 90 94 90 91 90 89 89 88 87 89 95 98 100 100 100 100 100 99 100 100 99 97 100 100 99 96 93 87 79 80 80 79 82 81
87 89 88 84 83 86 91 90 92 94 94 93 93 93 87 89 86 89 97 100 100 100 100 100 100 100 100 100 100 100 100 100 100 100 100 97 92 88 85 81 82 84 82
89 87 91 93 94 97 96 95 96 98 98 97 94 93 94 92 93 100 100 100 100 100 100 100 100 100 100 100 100 100 100 100 100 100 100 97 92 87 85 85 85 86 82